C9756 Weather Reports


time (UTC)temp
F
wind
direction
speed
knots
gust
knots
rain 1hr
in
rain 24hr
in
rain mn
in
humidity
%
barometer
mb
20260504211101 77 243 1.7 7.0 0.00 0.00 0.00 34 1012.7
20260504210601 77 255 1.7 5.2 0.00 0.00 0.00 37 1012.7
20260504210104 77 232 1.7 7.8 0.00 0.00 0.00 34 1012.8
20260504210100 76 225 1.7 7.8 0.00 0.00 0.00 35 1012.7
20260504205717 77 269 1.7 4.3 0.00 0.00 0.00 36 1012.9
20260504205219 77 229 1.7 6.1 0.00 0.00 0.00 37 1013.0
20260504204600 76 225 1.7 4.3 0.00 0.00 0.00 38 1012.9
20260504204059 77 239 1.7 6.1 0.00 0.00 0.00 36 1013.0
20260504203717 77 243 1.7 5.2 0.00 0.00 0.00 36 1013.1
20260504203215 77 243 1.7 5.2 0.00 0.00 0.00 36 1013.4
20260504202556 77 219 1.7 4.3 0.00 0.00 0.00 36 1013.3
20260504202057 77 197 1.7 5.2 0.00 0.00 0.00 37 1013.3
20260504201054 77 228 1.7 5.2 0.00 0.00 0.00 37 1013.4
20260504200556 77 210 1.7 7.0 0.00 0.00 0.00 37 1013.5
20260504200055 77 208 1.7 7.0 0.00 0.00 0.00 36 1013.5
20260504195552 78 232 1.7 5.2 0.00 0.00 0.00 37 1013.5
20260504195051 78 219 1.7 4.3 0.00 0.00 0.00 36 1013.6
20260504194551 78 242 1.7 4.3 0.00 0.00 0.00 36 1013.7
20260504193551 78 78 0.9 5.2 0.00 0.00 0.00 36 1013.8
20260504193547 78 240 0.9 3.5 0.00 0.00 0.00 36 1013.8
20260504192545 78 224 1.7 5.2 0.00 0.00 0.00 36 1013.8
20260504192044 78 248 0.9 3.5 0.00 0.00 0.00 35 1013.9
20260504191550 78 233 0.9 4.3 0.00 0.00 0.00 37 1014.1
20260504191544 78 186 0.9 4.3 0.00 0.00 0.00 37 1014.0
20260504190545 78 263 1.7 4.3 0.00 0.00 0.00 38 1014.2
20260504190048 77 251 1.7 5.2 0.00 0.00 0.00 37 1014.2
20260504190044 78 229 0.9 5.2 0.00 0.00 0.00 36 1014.3
20260504185043 78 226 0.9 4.3 0.00 0.00 0.00 38 1014.3
20260504184545 77 256 1.7 6.1 0.00 0.00 0.00 36 1014.4
20260504184540 77 99 1.7 6.1 0.00 0.00 0.00 38 1014.3
20260504183541 77 276 1.7 5.2 0.00 0.00 0.00 37 1014.4
20260504183039 77 207 1.7 5.2 0.00 0.00 0.00 38 1014.5
20260504182539 77 228 1.7 5.2 0.00 0.00 0.00 38 1014.6
20260504182039 78 260 1.7 5.2 0.00 0.00 0.00 37 1014.7
20260504181539 77 215 0.9 4.3 0.00 0.00 0.00 39 1014.6
20260504181037 77 221 0.9 4.3 0.00 0.00 0.00 40 1014.6
20260504180536 77 294 0.9 4.3 0.00 0.00 0.00 37 1014.7
20260504180039 77 354 0.9 5.2 0.00 0.00 0.00 41 1014.7
20260504175538 77 215 0.9 5.2 0.00 0.00 0.00 38 1014.7
20260504175035 76 222 0.9 2.6 0.00 0.00 0.00 39 1014.6
20260504174534 76 81 1.7 6.1 0.00 0.00 0.00 40 1014.7
20260504174032 76 214 1.7 6.1 0.00 0.00 0.00 38 1014.9
20260504173533 76 219 0.9 4.3 0.00 0.00 0.00 38 1014.9
20260504173033 76 285 0.9 5.2 0.00 0.00 0.00 38 1014.9
20260504172534 75 231 0.9 5.2 0.00 0.00 0.00 44 1015.0
20260504172032 75 82 0.9 5.2 0.00 0.00 0.00 39 1015.1
20260504171539 75 232 0.9 5.2 0.00 0.00 0.00 39 1015.4
20260504171534 75 213 1.7 5.2 0.00 0.00 0.00 38 1015.2
20260504171152 76 215 0.9 3.5 0.00 0.00 0.00 38 1015.4
20260504151018 70 219 1.7 5.2 0.00 0.00 0.00 43 1016.8
20260504150518 70 221 0.9 3.5 0.00 0.00 0.00 45 1016.8
20260504140509 65 98 0.0 1.7 0.00 0.00 0.00 61 1016.6
20260504130508 48 225 0.0 0.0 0.00 0.00 0.00 91 1016.5
20260504110509 40 225 0.0 0.0 0.00 0.00 0.00 91 1016.3
20260504100515 41 225 0.0 0.9 0.00 0.00 0.00 91 1016.1
20260504100510 41 225 0.0 0.9 0.00 0.00 0.00 91 1016.1
20260504081508 43 228 0.0 0.0 0.00 0.00 0.00 89 1016.0
20260504081008 43 228 0.0 0.0 0.00 0.00 0.00 89 1015.9
20260504080513 44 228 0.0 0.0 0.00 0.00 0.00 89 1015.8
20260504080508 43 228 0.0 0.0 0.00 0.00 0.00 89 1015.9
20260504050508 48 229 0.0 0.0 0.00 0.00 0.00 81 1016.2
20260504050010 49 228 0.0 0.0 0.00 0.00 0.00 81 1016.1
20260504045509 49 228 0.0 0.0 0.00 0.00 0.00 81 1016.1
20260504045008 49 228 0.0 0.0 0.00 0.00 0.00 81 1016.0
20260504044508 49 228 0.0 0.0 0.00 0.00 0.00 81 1015.9
20260504044008 49 228 0.0 0.0 0.00 0.00 0.00 81 1015.8
20260504043509 49 228 0.0 0.0 0.00 0.00 0.00 81 1015.7
20260504043013 49 229 0.0 0.0 0.00 0.00 0.00 80 1015.9
20260504043008 49 228 0.0 0.0 0.00 0.00 0.00 81 1015.8
20260504042009 49 228 0.0 0.0 0.00 0.00 0.00 80 1015.9
20260504041508 49 228 0.0 0.0 0.00 0.00 0.00 80 1015.9
20260504041006 49 228 0.0 0.0 0.00 0.00 0.00 81 1015.9
20260504040509 49 228 0.0 0.0 0.00 0.00 0.00 81 1015.9
20260504040008 49 229 0.0 0.0 0.00 0.00 0.00 80 1015.9
20260504035510 49 228 0.0 0.0 0.00 0.00 0.00 78 1016.0
20260504035506 49 228 0.0 0.0 0.00 0.00 0.00 79 1016.0
20260504034514 49 228 0.0 0.0 0.00 0.00 0.00 78 1016.1
20260504034505 49 228 0.0 0.0 0.00 0.00 0.00 78 1016.1
20260504033507 49 228 0.0 0.0 0.00 0.00 0.00 78 1016.1
20260504033010 49 228 0.0 0.0 0.00 0.00 0.00 77 1016.1
20260504033005 49 228 0.0 0.0 0.00 0.00 0.00 78 1016.1
20260504032005 49 227 0.0 0.0 0.00 0.00 0.00 76 1016.1
20260504031506 49 228 0.0 0.0 0.00 0.00 0.00 75 1016.1
20260504031004 49 228 0.0 0.0 0.00 0.00 0.00 74 1016.2
20260504030506 49 227 0.0 0.0 0.00 0.00 0.00 74 1016.2
20260504030004 49 228 0.0 0.0 0.00 0.00 0.00 73 1016.2
20260504025506 50 227 0.0 0.0 0.00 0.00 0.00 73 1016.2
20260504025005 50 228 0.0 0.0 0.00 0.00 0.00 72 1016.2
20260504024506 50 228 0.0 0.0 0.00 0.00 0.00 71 1016.2
20260504024006 50 228 0.0 0.0 0.00 0.00 0.00 71 1016.2
20260504023504 51 228 0.0 0.0 0.00 0.00 0.00 70 1016.2
20260504023005 51 228 0.0 0.0 0.00 0.00 0.00 70 1016.1
20260504022511 51 228 0.0 0.0 0.00 0.00 0.00 69 1015.9
20260504022506 51 228 0.0 0.0 0.00 0.00 0.00 69 1016.1
20260504022005 51 228 0.0 0.0 0.00 0.00 0.00 69 1016.0
20260504021621 52 228 0.0 0.0 0.00 0.00 0.00 68 1015.8
20260504020512 52 228 0.0 0.0 0.00 0.00 0.00 67 1015.6
20260504020507 52 228 0.0 0.0 0.00 0.00 0.00 67 1015.7
20260504020122 52 228 0.0 0.0 0.00 0.00 0.00 67 1015.6
20260504015005 53 228 0.0 0.0 0.00 0.00 0.00 67 1015.5
20260504014505 53 228 0.0 0.0 0.00 0.00 0.00 67 1015.5
20260504014005 53 228 0.0 0.0 0.00 0.00 0.00 67 1015.4
20260504013506 53 228 0.0 0.0 0.00 0.00 0.00 65 1015.4
20260504013005 53 228 0.0 0.0 0.00 0.00 0.00 63 1015.3
20260504012505 54 227 0.0 0.0 0.00 0.00 0.00 63 1015.3
20260504012004 54 226 0.0 0.0 0.00 0.00 0.00 63 1015.3
20260504011508 55 228 0.0 0.0 0.00 0.00 0.00 60 1015.2
20260504011503 54 226 0.0 0.0 0.00 0.00 0.00 61 1015.3
20260504011120 55 226 0.0 0.0 0.00 0.00 0.00 60 1015.1
20260504010003 55 228 0.0 0.0 0.00 0.00 0.00 59 1015.0
20260504005504 55 226 0.0 0.0 0.00 0.00 0.00 58 1015.0
20260504005002 56 226 0.0 0.0 0.00 0.00 0.00 57 1014.9
20260504004501 56 226 0.0 0.0 0.00 0.00 0.00 56 1015.0
20260504004002 56 226 0.0 0.0 0.00 0.00 0.00 55 1015.0
20260504003501 57 226 0.0 0.0 0.00 0.00 0.00 55 1015.0
20260504003003 57 226 0.0 0.0 0.00 0.00 0.00 54 1014.9
20260504002501 58 226 0.0 0.0 0.00 0.00 0.00 54 1014.9
20260504002001 58 226 0.0 0.0 0.00 0.00 0.00 53 1014.7
20260504001459 59 226 0.0 0.0 0.00 0.00 0.00 52 1014.7
20260504000959 59 226 0.0 0.0 0.00 0.00 0.00 52 1014.6
20260504000459 60 226 0.0 0.0 0.00 0.00 0.00 51 1014.6
20260503235958 60 227 0.0 0.0 0.00 0.00 0.00 51 1014.6
20260503235457 61 227 0.0 0.0 0.00 0.00 0.00 49 1014.6
20260503235001 62 227 0.0 0.0 0.00 0.00 0.00 47 1014.6
20260503234956 61 226 0.0 0.0 0.00 0.00 0.00 49 1014.6
20260503234003 63 226 0.0 0.0 0.00 0.00 0.00 44 1014.5
20260503233957 62 226 0.0 0.0 0.00 0.00 0.00 45 1014.6
20260503233457 63 226 0.0 0.0 0.00 0.00 0.00 44 1014.6
20260503233113 64 226 0.0 0.9 0.00 0.00 0.00 41 1014.5
20260503232452 64 226 0.0 0.9 0.00 0.00 0.00 43 1014.5
20260503232112 64 228 0.9 1.7 0.00 0.00 0.00 40 1014.5
20260503230952 65 228 0.9 2.6 0.00 0.00 0.00 37 1014.6
20260503230452 65 240 0.9 2.6 0.00 0.00 0.00 37 1014.6
20260503225952 65 225 0.9 2.6 0.00 0.00 0.00 37 1014.6
20260503225458 65 248 1.7 4.3 0.00 0.00 0.00 36 1014.6
20260503225454 65 233 1.7 3.5 0.00 0.00 0.00 37 1014.6
20260503224453 65 246 0.9 4.3 0.00 0.00 0.00 36 1014.7
20260503223952 65 239 0.9 2.6 0.00 0.00 0.00 36 1014.7
20260503223453 65 229 1.7 3.5 0.00 0.00 0.00 35 1014.7
20260503222953 66 252 1.7 7.0 0.00 0.00 0.00 35 1014.9
20260503222454 66 242 0.9 7.0 0.00 0.00 0.00 34 1015.0
20260503221954 66 235 0.9 2.6 0.00 0.00 0.00 35 1014.9
20260503221450 66 233 0.9 3.5 0.00 0.00 0.00 36 1015.0
20260503220955 66 250 0.9 5.2 0.00 0.00 0.00 36 1015.0
20260503220950 66 240 0.9 5.2 0.00 0.00 0.00 35 1015.1
20260503220608 66 267 0.9 6.1 0.00 0.00 0.00 34 1015.2
20260503215950 66 262 1.7 4.3 0.00 0.00 0.00 35 1015.1
20260503215447 66 210 0.9 4.3 0.00 0.00 0.00 35 1015.2
20260503215104 66 264 0.9 6.1 0.00 0.00 0.00 34 1015.3
20260503213949 66 225 0.9 3.5 0.00 0.00 0.00 36 1015.3
20260503213945 66 218 0.9 3.5 0.00 0.00 0.00 37 1015.3
20260503212945 66 228 1.7 6.1 0.00 0.00 0.00 34 1015.4
20260503212451 67 236 1.7 5.2 0.00 0.00 0.00 33 1015.5
20260503212446 67 219 2.6 6.1 0.00 0.00 0.00 34 1015.5
20260503211444 67 228 1.7 5.2 0.00 0.00 0.00 34 1015.6